Regional Weather Roundup
Issued by NWS Goodland, KS

Home | Current Version | Previous Version | Text Only | Print | Product List | Glossary Off
Versions: 1 2 3 4 5 6 7 8 9 10 11 12 13 14 15 16 17 18 19 20 21 22 23 24 25 26 27 28 29 30 31 32 33 34 35 36 37 38 39 40 41 42 43 44 45 46 47 48 49 50

000
ASUS43 KGLD 260859
RWRGLD

GOODLAND FORECAST AREA HOURLY WEATHER ROUNDUP
NATIONAL WEATHER SERVICE GOODLAND KS
300 AM MDT MON JUN 26 2017

...OFFICIAL OBSERVATIONS...

CITY           SKY/WX    TMP DP  RH WIND       PRES   REMARKS
GOODLAND KS    CLOUDY    57  57 100 S9        30.27F FOG
HILL CITY KS   CLOUDY    59  56  89 W7        30.25F
IMPERIAL NEB   CLEAR     57  55  93 S6        30.23F
MCCOOK NEB     CLOUDY    60  58  92 SW13      30.24S
AKRON CO       CLEAR     56  53  90 S10       30.27F
BURLINGTON CO  CLOUDY    59  57  93 S6        30.29F
LIMON CO       CLOUDY    56  55  97 SE3       30.34F
$$

...UNOFFICIAL OBSERVATIONS...

CITY           SKY/WX    TMP DP  RH WIND       PRES   REMARKS
LENORA KS        N/A     56  32  40 MISG        N/A
NORTON KS      CLEAR     54  50  87 SW6       30.24F
SHARON SPRINGS   N/A     60  58  93 SE5         N/A
TRENTON NEB      N/A     59  32  36 CALM        N/A
KIT CARSON CO    N/A     60  53  79 MISG        N/A
YUMA CO        FAIR      50  50 100 SW6       30.25F
$$



USA.gov is the U.S. government's official web portal to all federal, state and local government web resources and services.